Norwood, MA

6:21 PM EST on February 14, 2016 (GMT -0500)
Norwood Memorial

Weather History for KOWD - May, 2013

Change the Weather History Date:

Thursday, May 2, 2013

  Actual Average Record
Temperature  
Mean Temperature 56 °F -  
Max Temperature 75 °F 64 °F 91 °F (2001)
Min Temperature 37 °F 41 °F 30 °F (2005)
Degree Days  
Heating Degree Days 9    
Growing Degree Days 6 (Base 50)    
Moisture  
Dew Point 40 °F    
Average Humidity 67    
Maximum Humidity 97    
Minimum Humidity 26    
Precipitation  
Precipitation 0.00 in - - ()
Sea Level Pressure  
Sea Level Pressure 30.43 in    
Wind  
Wind Speed 2 mph (NE)    
Max Wind Speed 18 mph    
Max Gust Speed 25 mph    
Visibility 10 miles    
Events      
Averages and records for this station are not official NWS values.
T = Trace of Precipitation, MM = Missing Value Source: NWS Daily Summary

Daily Weather History Graph

Daily Weather History Graph

Search for Another Location

Airport or City:

Trip Planner

Search our weather history database for the weather conditions in past years. The results will help you decide how hot, cold, wet, or windy it might be!

Date:

Astronomy

May. 02, 2013 Rise Set
Actual Time 5:38 AM EDT 7:45 PM EDT
Civil Twilight 5:08 AM EDT 8:16 PM EDT
Nautical Twilight 4:30 AM EDT 8:53 PM EDT
Astronomical Twilight 3:49 AM EDT 9:35 PM EDT
Moon 1:32 AM EDT (5/2) 12:23 PM EDT (5/2)
Length of Visible Light 15h 08m
Length of Day
14h 06m
Waning Gibbous, 48% of the Moon is Illuminated
May 2
Waning Gibbous
May 9
New
May 18
First Quarter
May 25
Full
May 31
Last Quarter

Hourly Weather History & Observations

Time (EDT) Temp. Dew Point Humidity Pressure Visibility Wind Dir Wind Speed Gust Speed Precip Events Conditions
12:53 AM 41.0 °F 37.0 °F 86% 30.45 in 10.0 mi Calm Calm - N/A   Clear
1:53 AM 39.9 °F 36.0 °F 86% 30.44 in 10.0 mi Calm Calm - N/A   Clear
2:53 AM 39.0 °F 37.0 °F 93% 30.43 in 10.0 mi Calm Calm - N/A   Clear
3:53 AM 39.0 °F 37.0 °F 93% 30.43 in 10.0 mi Calm Calm - N/A   Clear
4:53 AM 37.0 °F 36.0 °F 96% 30.43 in 10.0 mi Calm Calm - N/A   Clear
5:53 AM 37.9 °F 37.0 °F 97% 30.43 in 2.0 mi Calm Calm - N/A   Clear
6:08 AM 39.2 °F 37.4 °F 93% 30.43 in 10.0 mi Calm Calm - N/A   Clear
6:53 AM 44.1 °F 42.1 °F 93% 30.44 in 10.0 mi Calm Calm - N/A   Clear
7:53 AM 53.1 °F 45.0 °F 74% 30.44 in 10.0 mi Calm Calm - N/A   Clear
8:53 AM 60.1 °F 45.0 °F 57% 30.44 in 10.0 mi Calm Calm - N/A   Clear
9:53 AM 66.0 °F 44.1 °F 45% 30.43 in 10.0 mi Calm Calm - N/A   Clear
10:53 AM 70.0 °F 45.0 °F 41% 30.41 in 10.0 mi Calm Calm - N/A   Clear
11:53 AM 73.0 °F 39.9 °F 30% 30.40 in 10.0 mi Calm Calm - N/A   Clear
12:53 PM 73.9 °F 39.0 °F 28% 30.37 in 10.0 mi East 4.6 mph - N/A   Clear
1:53 PM 75.0 °F 39.0 °F 27% 30.36 in 10.0 mi Variable 3.5 mph - N/A   Clear
2:53 PM 75.9 °F 39.0 °F 26% 30.35 in 10.0 mi ENE 11.5 mph 17.3 mph N/A   Clear
3:53 PM 73.0 °F 37.9 °F 28% 30.36 in 10.0 mi NE 18.4 mph 25.3 mph N/A   Partly Cloudy
4:53 PM 61.0 °F 45.0 °F 56% 30.38 in 10.0 mi NE 12.7 mph 20.7 mph N/A   Clear
5:53 PM 55.9 °F 45.0 °F 67% 30.41 in 10.0 mi NE 5.8 mph - N/A   Overcast
6:53 PM 51.1 °F 45.0 °F 80% 30.44 in 10.0 mi NE 9.2 mph - N/A   Overcast
7:53 PM 48.9 °F 42.1 °F 77% 30.47 in 10.0 mi NE 6.9 mph - N/A   Overcast
8:53 PM 48.9 °F 39.9 °F 71% 30.49 in 10.0 mi ENE 3.5 mph - N/A   Overcast
9:53 PM 50.0 °F 39.0 °F 66% 30.48 in 10.0 mi Calm Calm - N/A   Overcast
10:53 PM 46.9 °F 39.0 °F 74% 30.48 in 10.0 mi Calm Calm - N/A   Clear
11:53 PM 44.1 °F 39.0 °F 82% 30.48 in 10.0 mi Calm Calm - N/A   Clear